PA3DZX-13 Weather Reports


Display with metric or nautical units.
time (UTC)temp
F
wind
direction
speed
MPH
gust
MPH
rain 1hr
in
rain 24hr
in
rain mn
in
humidity
%
barometer
mb
20260504010828 53 238 4.0 8.0 0.00 0.00 0.00 98 1011.8
20260504005328 55 238 6.0 11.0 0.00 0.00 0.00 97 1011.8
20260504003827 55 238 6.0 11.0 0.00 0.00 0.00 97 1011.8
20260504002327 55 217 6.0 8.0 0.00 0.00 0.00 98 1011.7
20260504000827 55 220 4.0 6.0 0.00 0.00 0.00 98 1011.7
20260503235326 55 218 4.0 6.0 0.00 0.00 0.00 99 1011.8
20260503233826 53 205 4.0 6.0 0.00 0.00 0.00 99 1011.7
20260503232325 53 209 4.0 6.0 0.00 0.00 0.00 98 1011.5
20260503230825 55 208 4.0 6.0 0.00 0.00 0.00 97 1011.4
20260503225323 55 207 4.0 6.0 0.00 0.00 0.00 97 1011.4
20260503223823 55 197 4.0 6.0 0.00 0.00 0.00 97 1011.4
20260503222323 55 196 4.0 6.0 0.00 0.00 0.00 97 1011.4
20260503220823 57 192 2.0 4.0 0.00 0.00 0.00 97 1011.4
20260503215322 55 194 2.0 4.0 0.00 0.00 0.00 97 1011.4
20260503213822 55 194 2.0 6.0 0.00 0.00 0.00 97 1011.3
20260503212322 55 195 4.0 6.0 0.00 0.00 0.00 97 1011.3
20260503210822 57 198 4.0 6.0 0.00 0.00 0.00 96 1011.4
20260503205320 57 198 4.0 6.0 0.00 0.00 0.00 96 1011.4
20260503203820 57 199 4.0 8.0 0.00 0.00 0.00 96 1011.5
20260503202320 57 200 6.0 8.0 0.00 0.00 0.00 95 1011.4
20260503200820 57 196 6.0 8.0 0.00 0.00 0.00 95 1011.3
20260503195320 57 194 6.0 8.0 0.00 0.00 0.00 95 1011.3
20260503193821 57 197 6.0 8.0 0.00 0.00 0.00 95 1011.3
20260503192319 57 201 6.0 11.0 0.00 0.00 0.00 94 1011.2
20260503190820 57 203 6.0 11.0 0.00 0.00 0.00 94 1011.1
20260503185319 57 202 6.0 8.0 0.00 0.00 0.00 95 1011.0
20260503183819 57 201 4.0 11.0 0.00 0.00 0.00 96 1010.8
20260503182319 57 200 6.0 13.0 0.00 0.00 0.00 95 1010.7
20260503180818 57 203 8.0 13.0 0.00 0.00 0.00 94 1010.8
20260503175316 57 190 6.0 11.0 0.00 0.00 0.00 95 1010.7
20260503173817 57 194 6.0 13.0 0.00 0.00 0.00 94 1010.7
20260503172315 57 198 6.0 13.0 0.00 0.00 0.00 94 1010.8
20260503170814 57 180 6.0 13.0 0.00 0.00 0.00 95 1010.7
20260503150812 62 206 11.0 17.0 0.00 0.00 0.00 68 1010.2
20260503130805 68 215 8.0 17.0 0.00 0.00 0.00 68 1010.2
20260503110801 69 177 8.0 15.0 0.00 0.00 0.00 65 1010.3
20260503080754 64 145 6.0 8.0 0.00 0.00 0.00 79 1011.1
20260503072252 60 112 2.0 4.0 0.00 0.00 0.00 90 1011.3
20260503070752 59 110 2.0 4.0 0.00 0.00 0.00 91 1011.4
20260503053749 55 7 0.0 2.0 0.00 0.00 0.00 99 1011.4
20260503052248 55 7 0.0 2.0 0.00 0.00 0.00 99 1011.4
20260503050748 55 10 2.0 4.0 0.00 0.00 0.00 98 1011.4
20260503045248 55 78 2.0 4.0 0.00 0.00 0.00 96 1011.4
20260503043748 55 100 0.0 2.0 0.00 0.00 0.00 96 1011.5
20260503042247 55 137 2.0 8.0 0.00 0.00 0.00 97 1011.7
20260503040747 55 139 4.0 8.0 0.00 0.00 0.00 96 1011.6
20260503035247 55 125 4.0 6.0 0.01 0.00 0.00 97 1011.5
20260503033748 55 124 2.0 4.0 0.00 0.00 0.00 99 1011.9
20260503032246 55 118 2.0 6.0 0.00 0.00 0.00 99 1011.9
20260503030745 55 69 4.0 8.0 0.08 0.00 0.00 99 1012.4
20260503025245 55 47 4.0 4.0 0.14 0.00 0.00 99 1012.3
20260503023745 53 246 4.0 6.0 0.00 0.00 0.00 99 1013.2
20260503022245 53 226 2.0 4.0 0.00 0.00 0.00 99 1013.0
20260503020745 53 157 2.0 2.0 0.00 0.00 0.00 99 1012.6
20260503015244 51 155 2.0 2.0 0.00 0.00 0.00 98 1012.7
20260503013745 51 150 2.0 4.0 0.00 0.00 0.00 97 1012.8
20260503012242 53 154 2.0 6.0 0.00 0.00 0.00 98 1012.9